NOAA 16 DEB, 42358

Orbit data source: Space-Track

NOAA 16 DEB, 42358 is space debris in SSO originally from a launch on Thu, 21 Sep 2000 UTC launched from the Air Force Western Test Range (AFWTR). Debris objects in space refer to the collection of defunct objects orbiting the Earth. Examples of debris include non-operational satellites, rocket bodies, and fragments generated from explosions, collisions, or faulty payload assembly.

Loading next visibility...
Identifier
42358, 2000-055RA
Orbit
SSO
Country
Flag of USUS
Related business
Manufacturer
Unknown
Mission
Spacecraft
Bus & Motor
Unknown
Mass
Unknown
Launch date (UTC)
2000-09-21 (26 years ago)
Launch vehicle
Unknown
Launch site
Air Force Western Test Range (AFWTR)
Object type
Payload
Rocket body
Debris
Shape & HBR
Unknown shape, 0.1 m
Radar Cross Section
Medium (>0.1 m² and <1 m²)

Expand to show TLE details & history
Last TLE update: 1 day ago

TLE from 1 day ago
0 NOAA 16 DEB
1 42358U 00055RA  26235.68807750  .00019640  00000-0  34028-2 0  9990
2 42358  98.8479  24.2548 0025048 110.9623 249.4263 14.68113510510977
Epoch: 2026-08-23T16:30Z
TLE epoch observation values (Epoch: 2026-08-23T16:30:49.896Z)
Latitude
-0.00001°
Longitude
164.56636°
Altitude
676.314 km
Speed
7.515 km/s
True Right ascension
01h 37m 01s
True Declination
0° 00' 00"
Sunlit
Object was in full shadow at epoch
Visualization orbit readout
Latitude
Unknown
Longitude
Unknown
Altitude
Unknown
Speed
Unknown
Apparent Right ascension
Unknown
Apparent Declination
Unknown
Sunlit
N/A
Visualization observer readout
Local Sidereal Time
10:42:24
Azimuth
Unknown
Elevation
Unknown
Doppler factor
Unknown
Orbital elements
Apogee altitude
681.838 km
Perigee altitude
646.559 km
Semi-major axis
7,042.335 km
Eccentricity
0.0025
Inclination
98.8479°
RAAN
24.2548°
Arg. of periapsis
110.9623°
True anomaly
249.15787°
Mean anomaly
249.4263°
Eccentric anomaly
249.29206°
Mean motion
3.67255 °/min
Orbital period
98.02 mins
BSTAR
0.0034028
Loading maneuver chart data...
Computing Atmospheric mass density...
Loading historical data...
Loading historical data...
Loading historical data...
Loading historical data...
Loading historical data...
Loading historical data...
Loading historical data...

Documentation

Showing up to 5 results
|